This is the latest recevied weather packets stored in our database for station/object KD8TSA. If no packets are shown the sender has not sent any weather packets the latest 10 day(s).
| Time | Temp. | Humidity | Pressure | Rain* | Wind** | Luminosity | Snow |
|---|---|---|---|---|---|---|---|
| 1777897405 | 12.22° C | 76% | 1009.6 hPa | 0 mm | - | 101 W/m² | - |
| 1777897100 | 12.22° C | 76% | 1009.5 hPa | 0 mm | - | 116 W/m² | - |
| 1777896797 | 12.22° C | 76% | 1009.7 hPa | 0 mm | - | 110 W/m² | - |
| 1777896494 | 11.67° C | 76% | 1009.4 hPa | 0 mm | - | 106 W/m² | - |
| 1777895889 | 11.67° C | 77% | 1009.3 hPa | 0 mm | - | 106 W/m² | - |
| 1777895587 | 11.11° C | 77% | 1009.3 hPa | 0 mm | - | 96 W/m² | - |
| 1777895284 | 11.11° C | 77% | 1009.3 hPa | 0 mm | - | 87 W/m² | - |
| 1777894679 | 10.56° C | 78% | 1009.2 hPa | 0 mm | - | 75 W/m² | - |
| 1777894073 | 10.56° C | 78% | 1009.4 hPa | 0 mm | - | 59 W/m² | - |
| 1777893769 | 10.56° C | 78% | 1009.4 hPa | 0 mm | - | 53 W/m² | - |
| 1777893466 | 10° C | 79% | 1009.6 hPa | 0 mm | - | 49 W/m² | - |
| 1777893163 | 10° C | 79% | 1009.4 hPa | 0 mm | - | 45 W/m² | - |
| 1777892859 | 10° C | 79% | 1009.5 hPa | 0 mm | - | 39 W/m² | - |
| 1777892555 | 9.44° C | 79% | 1009.4 hPa | 0 mm | - | 35 W/m² | - |
| 1777892251 | 9.44° C | 79% | 1009.2 hPa | 0 mm | - | 29 W/m² | - |
| 1777891948 | 9.44° C | 79% | 1009.4 hPa | 0 mm | - | 24 W/m² | - |
| 1777891647 | 9.44° C | 79% | 1009.3 hPa | 0 mm | - | 17 W/m² | - |
| 1777891038 | 9.44° C | 78% | 1009.5 hPa | 0 mm | - | 6 W/m² | - |
| 1777890737 | 9.44° C | 78% | 1009.3 hPa | 0 mm | - | 2 W/m² | - |
| 1777889826 | 9.44° C | 78% | 1009.3 hPa | 0 mm | - | 0 W/m² | - |
| 1777889523 | 9.44° C | 77% | 1009.5 hPa | 0 mm | - | 0 W/m² | - |
| 1777889221 | 9.44° C | 77% | 1009.3 hPa | 0 mm | - | 0 W/m² | - |
| 1777888615 | 10° C | 76% | 1009.6 hPa | 0 mm | - | 0 W/m² | - |
| 1777888311 | 10° C | 76% | 1009.5 hPa | 0 mm | - | 0 W/m² | - |
| 1777887397 | 10° C | 76% | 1010 hPa | 0 mm | - | 0 W/m² | - |
* Rain latest hour (hover to see other rain measurements)
** Current wind speed in m/s (hover to see current wind gust speed)